237  
ASUS43 KFGF 242331  
RWRFGF  
PRAIRIE TO PINES WEATHER ROUNDUP  
NATIONAL WEATHER SERVICE EASTERN NORTH DAKOTA/GRAND FORKS ND  
600 PM CDT FRI MAR 24 2017  
 
**SATELLITE DATA USED TO AUGMENT SKY COVER AT AUTOMATED STATIONS**  
***** WEATHER ACROSS EASTERN NORTH DAKOTA *****  
 
CITY SKY/WX TMP DP RH WIND PRES REMARKS
 
GRAND FORKS CLOUDY 36 28 73 N9 30.22S  
GRAND FRKS AFB CLOUDY 34 28 80 NE7 30.22S  
DEVILS LAKE CLOUDY 32 26 78 NE9 30.20F WCI 24  
FARGO FAIR 40 33 76 N12 30.18F  
WAHPETON ARPT N/A 41 32 70 N12 30.17S  

 
 
***** WEATHER ACROSS CENTRAL AND WESTERN NORTH DAKOTA *****  
 
CITY SKY/WX TMP DP RH WIND PRES REMARKS
 
BISMARCK FAIR 46 34 62 E13 30.15S  
MINOT FAIR 39 29 67 E17 30.13F  
JAMESTOWN CLOUDY 34 29 82 NE9 30.18S  
MINOT AFB FAIR 37 29 75 SE15 30.12F  
GARRISON N/A 40 31 70 E16 30.11F  
WILLISTON FAIR 57 32 38 E18 29.99F  
DICKINSON PTSUNNY 54 32 43 SE10 30.02F  
HETTINGER FAIR 58 34 40 SE14 30.06F  

 
 
***** OTHER AIRPORT OBSERVATIONS IN OUR AREA *****  
 
CITY SKY/WX TMP DP RH WIND PRES REMARKS
 
WALHALLA NOT AVBL  
GRAFTON AIRPOR CLOUDY 34 28 80 N7 30.25S  
VALLEY CITY AR CLOUDY 34 32 93 NE9G15 30.20S  
CANDO NOT AVBL  
CAVALIER APRT N/A 32 25 74 NE3 30.23S  
GWINNER MOCLDY 41 32 70 MISG 30.17S  
SHEYENNE NWR N/A 36 28 73 NE13 29.95S  
ROLLA CLOUDY 28 27 93 E9 30.18S WCI 20  
***** THE ABOVE OBSERVATIONS ARE NON NWS ARE NOT QUALITY  
CONTROLLED AND MAY MIS-REPORT RAIN FOR SNOW...  

 
 
***** WEATHER ACROSS NORTHERN MINNESOTA *****  
 
CITY SKY/WX TMP DP RH WIND PRES REMARKS
 
FLAG ISLAND CLOUDY 34 25 69 N8 30.22R  
WARROAD CLOUDY 36 28 75 E5 30.22R  
ROSEAU CLOUDY 37 28 70 CALM 30.22R  
HALLOCK CLOUDY 34 28 80 N7 30.22F  
THF RVR FALLS FAIR N/A N/A N/A N12 30.20S  
BAUDETTE CLOUDY 37 25 61 N12 30.19R  
WASKISH CLOUDY 37 30 75 CALM 30.18R  
CROOKSTON FAIR 36 32 87 N12 30.21S  
STEPHEN NDAWN N/A 34 30 86 N10 N/A  
GREENBUSH NDAW N/A 34 27 75 E6 N/A  

 
***** WEATHER ACROSS CENTRAL AND WEST MINNESOTA *****  
 
CITY SKY/WX TMP DP RH WIND PRES REMARKS
 
FOSSTON FAIR 43 32 65 N7 30.17S  
BEMIDJI FAIR 40 30 67 E6 30.17R  
PARK RAPIDS CLOUDY 43 28 55 E6 30.15R  
ELBOW LAKE FAIR 44 34 68 NE8 30.15S  
WADENA CLOUDY 43 32 65 NE9 30.15R  
DETROIT LAKES FAIR 41 32 70 N3 30.16S  
MOORHEAD FAIR 37 34 87 N14 30.19F  
FERGUS FALLS FAIR 43 30 61 N9 30.19R  
MORRIS MN FAIR 45 36 70 E3 30.13S  
STAPLES CLOUDY 39 30 70 NE7 30.16R  

 
***** WEATHER ELSEWHERE ACROSS MINNESOTA *****  
 
CITY SKY/WX TMP DP RH WIND PRES REMARKS
 
DULUTH CLOUDY 36 32 85 E5 30.16R  
INTRNTL FALLS CLOUDY 38 25 59 NE5 30.19R  
ELY CLOUDY 36 30 80 CALM 30.18R  
CLOQUET CLOUDY 36 30 80 CALM 30.16S  
WHEATON FAIR 43 34 70 NW14 30.18S  
BRAINERD CLOUDY 39 31 72 NE12 30.16R  
HIBBING CLOUDY 36 32 85 N7 30.16R  
ALEXANDRIA CLOUDY 43 33 68 E7 30.14R  
SAINT CLOUD CLOUDY 39 33 79 NE5 30.14R  
MINNEAPOLIS CLOUDY 43 34 70 N12 30.11R  

 
 
***** WEATHER ACROSS SOUTH DAKOTA *****  
 
CITY SKY/WX TMP DP RH WIND PRES REMARKS
 
SIOUX FALLS CLOUDY 41 37 86 N18 30.07R  
BROOKINGS CLOUDY 40 34 79 N15G23 30.09S  
WATERTOWN FAIR 39 33 79 NE13 30.11S  
HURON FAIR 46 35 65 NE13 30.11S  
SISSETON N/A 43 35 73 NE14 30.15S  
ABERDEEN FAIR 49 30 48 NE12 30.16R  
MITCHELL FAIR 46 37 71 N18 30.09F  
PIERRE FAIR 56 31 38 E13 30.09S  
MOBRIDGE FAIR 57 31 37 E9 30.09S  
RAPID CITY FAIR 61 28 28 E10 30.05F  

 
 
***** SOME WEATHER IN NEARBY STATES *****  
 
CITY SKY/WX TMP DP RH WIND PRES REMARKS
 
GLASGOW MT FAIR 64 27 24 S20 29.85F  
GREAT FALLS MT FAIR 65 19 17 S20G28 29.71F  
CHEYENNE WY FAIR 51 22 31 N15G23 30.11F  
SCOTTSBLUFF NE PTSUNNY 57 27 31 NE12 30.09S  
OMAHA NE LGT RAIN 44 40 85 N16 29.97R FOG  
DES MOINES IA LGT RAIN 49 46 90 NE12 29.95R FOG  
DAVENPORT IA CLOUDY 60 51 72 NW12 29.92F  
CHICAGO IL CLOUDY 51 40 65 NE21G26 29.95R  
EAU CLAIRE WI CLOUDY 41 36 82 NE10G21 30.07S  
LA CROSSE WI CLOUDY 43 39 86 NE13 30.05R FOG  

 
 
***** SOME NATIONAL WEATHER *****  
 
CITY SKY/WX TMP DP RH WIND PRES REMARKS
 
LA GUARDIA NY MOCLDY 52 36 54 SE9 30.11F  
RALEIGH NC FAIR 67 46 47 SW15 30.33F  
ATLANTA GA PTSUNNY 72 49 44 S8 30.28F  
NEW ORLEANS LA CLOUDY 75 65 70 SE15 30.13F  
OKLAHOMA CITY CLOUDY 72 29 20 S16G29 29.67S  
ALBUQUERQUE NM FAIR 67 19 16 NW17G28 30.05R  
SALT LAKE CITY CLOUDY 58 32 37 S12 30.09F  
LOS ANGELES CA FAIR 63 54 72 W16 30.19F  
BOISE ID LGT RAIN 49 41 74 SE8 29.98S  
SEATTLE WA PTSUNNY 54 44 69 S14G24 29.83F  

 
 
*** WEATHER ACROSS MANITOBA...SASKATCHEWAN AND ONTARIO ***  
***ONTARIO***  
 
CITY SKY/WX TMP DP RH WIND PRES REMARKS
 
GERALDTON MOSUNNY 28 1 31 NE14 30.23R WCI 17  
THUNDER BAY PTSUNNY 36 23 60 N6 30.21R  
SIOUX LOOKOUT MOSUNNY 36 18 48 VRB2 30.21S  
TORONTO CLOUDY 50 41 71 N22G29 29.97R  
BIG TROUT LK SUNNY 16 -2 45 NW7 30.37R WCI 6  
PICKLE LAKE MOSUNNY 27 -8 22 NE9 30.26S WCI 17  
DRYDEN MOSUNNY 36 21 55 NE7 30.20S  
KENORA PTSUNNY 32 21 64 NE2 30.21S  

 
*** MANITOBA***  
 
CITY SKY/WX TMP DP RH WIND PRES REMARKS
 
BRANDON PTSUNNY 32 25 74 E12 30.19F WCI 23  
DAUPHIN SUNNY 32 25 74 E10 30.21F WCI 24  
ISLAND LAKE MOSUNNY 19 0 42 SE8 30.33F WCI 9  
PILOT MOUND N/A 30 25 80 E6 N/A WCI 24  
THE PAS CLOUDY 23 9 54 SE8 30.22F WCI 14  
THOMPSON PTSUNNY 18 -4 38 E6 30.30F WCI 9  
WINNIPEG CLOUDY 32 23 69 N5 30.24S  
LYNN LAKE MOSUNNY 19 7 58 S9 30.19S WCI 9  
CHURCHILL MOSUNNY 1 -9 60 NW5 30.40F WCI -8  
GILLAM MOSUNNY 14 -11 31 NW3 30.39F  

 
***SASKATCHEWAN***  
 
CITY SKY/WX TMP DP RH WIND PRES REMARKS
 
ESTEVAN PTSUNNY 37 32 81 E20 30.05F  
KINDERSLEY CLOUDY 50 36 57 SE13 29.78F  
LLOYDMINSTER CLOUDY 34 30 86 E18 29.82F WCI 23  
PRINCE ALBERT PTSUNNY 32 23 69 SE13G20 30.03F WCI 22  
REGINA CLOUDY 39 34 81 SE23G31 29.97F  
YORKTON SUNNY 34 27 75 SE16 30.09F WCI 23  
N. BATTLEFORD SUNNY 39 28 65 E23 29.90F  
LA RONGE PTSUNNY 36 21 55 SE8 30.06F  
SASKATOON CLOUDY 43 28 56 E15G23 29.95F  
SWIFT CURRENT PTSUNNY 54 27 35 S13 29.81F  

 
NOTE: THESE ARE AUTOMATED STATIONS WITH LIMITED QUALITY CONTROL  
"FAIR" INDICATES FEW OR NO CLOUDS BELOW 12,000 FEET WITH NO  
SIGNIFICANT WEATHER AND/OR S TO VISIBILITY
.  
SKY/WX - SKY CONDITION AND SIGNIFICANT WEATHER.  
TMP - AIR TEMPERATURE. DP - DEWPOINT TEMPERATURE.  
RH - RELATIVE HUMIDITY. PRES - PRESSURE.  
HX - HEAT INDEX. WCI - WIND CHILL INDEX.  
$  
 
 
CLICK HERE TO GO TO PREVIOUS BULLETINS.

The Nexlab ND Page
The Nexlab MN Page Main Text Page